Chattanooga, TN

2:47 PM EST on February 24, 2017 (GMT -0500)
Lovell

Weather History for KCHA - January, 2013

Change the Weather History Date:

Wednesday, January 30, 2013

  Actual Average Record
Temperature  
Mean Temperature 55 °F 41 °F  
Max Temperature 68 °F 52 °F 77 °F (2002)
Min Temperature 41 °F 31 °F -7 °F (1966)
Degree Days  
Heating Degree Days 10 24  
Month to date heating degree days 576 741  
Since 1 July heating degree days 1715 2025  
Growing Degree Days 6 (Base 50)    
Moisture  
Dew Point 56 °F    
Average Humidity 91    
Maximum Humidity 100    
Minimum Humidity 81    
Precipitation  
Precipitation 2.17 in 0.16 in 3.10 in (1914)
Month to date precipitation 9.74 4.75  
Year to date precipitation 9.74 4.75  
Snow  
Snow 0.00 in 0.10 in - ()
Month to date snowfall 0.0 1.7  
Since 1 July snowfall T 2.0  
Snow Depth 0.00 in    
Sea Level Pressure  
Sea Level Pressure 29.66 in    
Wind  
Wind Speed 10 mph (SSW)    
Max Wind Speed 26 mph    
Max Gust Speed 37 mph    
Visibility 7 miles    
Events Rain , Thunderstorm    
T = Trace of Precipitation, MM = Missing Value Source: NWS Daily Summary

Daily Weather History Graph

Daily Weather History Graph

Search for Another Location

Airport or City:

Trip Planner

Search our weather history database for the weather conditions in past years. The results will help you decide how hot, cold, wet, or windy it might be!

Date:

Astronomy

Jan. 30, 2013 Rise Set
Actual Time 7:40 AM EST 6:07 PM EST
Civil Twilight 7:14 AM EST 6:34 PM EST
Nautical Twilight 6:43 AM EST 7:04 PM EST
Astronomical Twilight 6:14 AM EST 7:34 PM EST
Moon 9:53 PM EST (1/30) 9:18 AM EST (1/30)
Length of Visible Light 11h 20m
Length of Day
10h 26m
Waning Gibbous, 88% of the Moon is Illuminated
Jan 30
Waning Gibbous
Feb 3
Last Quarter
Feb 10
New
Feb 17
First Quarter
Feb 25
Full

Hourly Weather History & Observations

Time (EST) Temp. Windchill Dew Point Humidity Pressure Visibility Wind Dir Wind Speed Gust Speed Precip Events Conditions
12:37 AM 66.2 °F - 62.6 °F 88% 29.85 in 10.0 mi SSE 13.8 mph - N/A   Overcast
12:53 AM 68.0 °F - 62.6 °F 83% 29.84 in 10.0 mi South 12.7 mph 21.9 mph N/A   Overcast
1:38 AM 66.2 °F - 60.8 °F 83% 29.82 in 10.0 mi South 10.4 mph 27.6 mph N/A   Overcast
1:53 AM 66.9 °F - 61.0 °F 81% 29.79 in 9.0 mi South 16.1 mph 25.3 mph 0.00 in Rain Light Rain
2:09 AM 66.2 °F - 60.8 °F 83% 29.79 in 10.0 mi SSE 17.3 mph 27.6 mph 0.00 in   Overcast
2:53 AM 66.9 °F - 61.0 °F 81% 29.76 in 10.0 mi South 15.0 mph 27.6 mph 0.00 in   Overcast
3:53 AM 66.9 °F - 61.0 °F 81% 29.74 in 8.0 mi South 15.0 mph 23.0 mph 0.00 in   Overcast
4:53 AM 66.0 °F - 63.0 °F 90% 29.70 in 10.0 mi South 12.7 mph 23.0 mph 0.00 in   Overcast
5:53 AM 66.9 °F - 63.0 °F 87% 29.68 in 10.0 mi South 11.5 mph 21.9 mph N/A   Overcast
6:53 AM 66.9 °F - 64.0 °F 90% 29.66 in 8.0 mi SSE 11.5 mph 17.3 mph 0.01 in   Overcast
7:33 AM 66.2 °F - 64.4 °F 94% 29.66 in 1.5 mi South 11.5 mph 19.6 mph 0.03 in Rain Heavy Rain
7:38 AM 66.2 °F - 64.4 °F 94% 29.65 in 5.0 mi South 11.5 mph 19.6 mph 0.10 in Rain Light Rain
7:53 AM 66.0 °F - 64.9 °F 96% 29.63 in 6.0 mi South 10.4 mph - 0.12 in Rain Light Rain
8:15 AM 66.2 °F - 64.4 °F 94% 29.65 in 1.0 mi South 11.5 mph 16.1 mph 0.09 in Rain Heavy Rain
8:20 AM 66.2 °F - 64.4 °F 94% 29.63 in 1.5 mi SSE 12.7 mph - 0.21 in Rain Light Rain
8:22 AM 66.2 °F - 64.4 °F 94% 29.63 in 6.0 mi South 9.2 mph - 0.22 in Rain Light Rain
8:26 AM 66.2 °F - 64.4 °F 94% 29.65 in 2.0 mi SSW 15.0 mph - 0.22 in Rain Rain
8:29 AM 66.2 °F - 64.4 °F 94% 29.65 in 4.0 mi SSW 17.3 mph 27.6 mph 0.31 in Rain Heavy Rain
8:43 AM 66.2 °F - 64.4 °F 94% 29.65 in 10.0 mi South 17.3 mph 23.0 mph 0.35 in   Mostly Cloudy
8:53 AM 68.0 °F - 64.9 °F 90% 29.63 in 10.0 mi South 12.7 mph 23.0 mph 0.35 in   Mostly Cloudy
9:10 AM 68.0 °F - 64.4 °F 88% 29.65 in 10.0 mi SSW 11.5 mph 17.3 mph N/A   Overcast
9:31 AM 62.6 °F - 57.2 °F 82% 29.67 in 7.0 mi West 11.5 mph - 0.00 in Rain Light Rain
9:48 AM 60.8 °F - 55.4 °F 82% 29.68 in 1.0 mi West 10.4 mph 19.6 mph 0.00 in Rain Heavy Rain
9:53 AM 59.0 °F - 55.9 °F 90% 29.65 in 1.2 mi Variable 5.8 mph - 0.12 in Rain Heavy Rain
10:04 AM 57.2 °F - 57.2 °F 100% 29.66 in 1.2 mi WSW 3.5 mph - 0.10 in Rain , Thunderstorm Heavy Thunderstorms and Rain
10:09 AM 57.2 °F - 57.2 °F 100% 29.65 in 2.0 mi Variable 4.6 mph - 0.23 in Rain , Thunderstorm Thunderstorms and Rain
10:14 AM 57.2 °F - 57.2 °F 100% 29.65 in 1.2 mi Calm Calm - 0.24 in Rain , Thunderstorm Heavy Thunderstorms and Rain
10:53 AM 57.0 °F - 57.0 °F 100% 29.65 in 1.2 mi South 4.6 mph - 0.86 in Rain , Thunderstorm Heavy Thunderstorms and Rain
10:55 AM 57.2 °F - 57.2 °F 100% 29.66 in 3.0 mi South 5.8 mph - 0.00 in Rain , Thunderstorm Heavy Thunderstorms and Rain
11:19 AM 57.2 °F - 57.2 °F 100% 29.65 in 3.0 mi South 4.6 mph - 0.11 in Rain Heavy Rain
11:50 AM 57.2 °F - 57.2 °F 100% 29.63 in 3.0 mi SW 3.5 mph - 0.25 in Rain Rain
11:53 AM 57.9 °F - 57.0 °F 97% 29.62 in 3.0 mi WSW 4.6 mph - 0.27 in Rain Heavy Rain
12:11 PM 57.2 °F - 57.2 °F 100% 29.61 in 3.0 mi Calm Calm - 0.08 in Rain , Thunderstorm Thunderstorms and Rain
12:35 PM 57.2 °F - 57.2 °F 100% 29.59 in 6.0 mi Calm Calm - 0.14 in Rain Light Rain
12:53 PM 57.9 °F - 57.0 °F 97% 29.56 in 10.0 mi SSW 8.1 mph - 0.18 in Rain Light Rain
1:02 PM 59.0 °F - 55.4 °F 88% 29.60 in 10.0 mi South 11.5 mph - N/A Rain Light Rain
1:19 PM 59.0 °F - 55.4 °F 88% 29.61 in 10.0 mi SSW 12.7 mph - 0.00 in Rain Light Rain
1:53 PM 57.0 °F - 55.0 °F 93% 29.57 in 6.0 mi SW 9.2 mph - 0.05 in Rain Light Rain
2:25 PM 55.4 °F - 51.8 °F 88% 29.60 in 4.0 mi WSW 17.3 mph 26.5 mph 0.03 in Rain Light Rain
2:53 PM 54.0 °F - 50.0 °F 86% 29.57 in 7.0 mi WSW 6.9 mph - 0.05 in Rain Light Rain
3:53 PM 52.0 °F - 46.9 °F 83% 29.60 in 10.0 mi Calm Calm - 0.06 in Rain Light Rain
4:53 PM 51.1 °F - 48.0 °F 89% 29.58 in 10.0 mi Variable 3.5 mph - 0.03 in Rain Light Rain
5:53 PM 51.1 °F - 45.0 °F 80% 29.57 in 10.0 mi South 8.1 mph - 0.00 in   Overcast
6:53 PM 50.0 °F - 46.0 °F 86% 29.59 in 10.0 mi South 5.8 mph - N/A   Overcast
7:28 PM 50.0 °F - 46.4 °F 87% 29.60 in 7.0 mi South 8.1 mph - N/A   Overcast
7:53 PM 50.0 °F - 46.9 °F 89% 29.62 in 3.0 mi SSW 8.1 mph - 0.02 in Rain Rain
8:12 PM 48.2 °F - 46.4 °F 93% 29.61 in 10.0 mi Variable 4.6 mph - 0.02 in   Mostly Cloudy
8:53 PM 48.9 °F - 39.9 °F 71% 29.64 in 10.0 mi West 15.0 mph 26.5 mph 0.02 in   Overcast
9:18 PM 48.2 °F - 41.0 °F 76% 29.67 in 5.0 mi West 19.6 mph 31.1 mph 0.00 in Rain Light Rain
9:53 PM 45.0 °F 37.9 °F 37.9 °F 76% 29.70 in 10.0 mi West 16.1 mph 32.2 mph 0.03 in Rain Light Rain
10:53 PM 44.1 °F 36.8 °F 34.0 °F 68% 29.77 in 10.0 mi West 16.1 mph 34.5 mph 0.00 in   Overcast
11:53 PM 41.0 °F 32.5 °F 30.9 °F 67% 29.83 in 10.0 mi West 17.3 mph 27.6 mph 0.00 in Rain Light Rain